Regional Weather Roundup
Issued by NWS

Home | Current Version | Previous Version | Graphics & Text | Print | Product List | Glossary On
Versions: 1 2 3 4 5 6 7 8 9 10 11 12 13 14 15 16 17 18 19 20 21 22 23 24 25 26 27 28 29 30 31 32 33 34 35 36 37 38 39 40 41 42 43 44 45 46 47 48 49 50
000
ASUS45 KBOI 210010
RWRID
WEATHER ROUNDUP FOR IDAHO
NATIONAL WEATHER SERVICE BOISE ID
600 PM MDT WED AUG 20 2014

NOTE: "FAIR" INDICATES FEW OR NO CLOUDS BELOW 12000 FEET
WITH NO SIGNIFICANT WEATHER AND/OR OBSTRUCTIONS TO VISIBILITY

IDZ012-014-210100-
SOUTHWEST IDAHO


CITY           SKY/WX    TMP DP  RH WIND       PRES   REMARKS
BOISE          PTSUNNY   84  43  23 N6        29.79F
CALDWELL       PTSUNNY   84  48  28 CALM      29.79F
MOUNTAIN HOME  PTSUNNY   85  47  25 NW8       29.78F
$$

IDZ016-017-210100-
SOUTHCENTRAL IDAHO


CITY           SKY/WX    TMP DP  RH WIND       PRES   REMARKS
BURLEY         CLOUDY    69  50  50 W9G22     29.88F
JEROME         PTSUNNY   77  53  43 SE7       29.88S
TWIN FALLS     PTSUNNY   75  50  41 S13       29.88F
$$

IDZ019>023-210100-
SOUTHEAST IDAHO


CITY           SKY/WX    TMP DP  RH WIND       PRES   REMARKS
IDAHO FALLS    LGT RAIN  65  54  67 NE10      29.96R
POCATELLO      PTSUNNY   74  46  36 S16G24    29.90S
REXBURG        CLOUDY    63  50  62 NE12      29.95R
$$

IDZ006-010-011-018-031-032-210100-
CENTRAL IDAHO MOUNTAINS


CITY           SKY/WX    TMP DP  RH WIND       PRES   REMARKS
MCCALL         PTSUNNY   68  45  43 NW6       29.92R
HAILEY         PTSUNNY   73  46  38 S8        29.94S
STANLEY          N/A     68  45  43 CALM      30.00F
SALMON         CLOUDY    64  50  59 CALM      29.93F
CHALLIS        CLOUDY    64  51  62 NW6       29.97F
$$

IDZ002-004-006-007-026-210100-
NORTHERN IDAHO


CITY           SKY/WX    TMP DP  RH WIND       PRES   REMARKS
LEWISTON       SUNNY     85  42  22 NW14      29.78S
LOWELL           N/A     80  59  48 NW3       29.73F
COEUR D`ALENE  MOSUNNY   79  46  31 SW13      29.80F
MULLAN PASS    MOSUNNY   58  49  72 CALM      29.99F
$$



USA.gov is the U.S. government's official web portal to all federal, state and local government web resources and services.